When you browse on this site, cookies collect data to enhance your experience and personalize the content and advertising you see.
Visit our Privacy Policy to learn more. By continuing to use the site, you agree to this use of cookies and data.
  • In Romania
  • List of Countries
  • For 7 days
  • Water Temperature
  • Satellite Maps
  • Weather Map
  • Weather Widgets
  • user-avatar
    Login

    Hourly Weather Hobart

    Today, 25 June, Tuesday

    Time Temperature Precipitation Wind Pressure Humidity
    00:00 +2°C° 0 mm 2 mps 760 mmHg 82%
    01:00 +2°C° 0 mm 2 mps 760 mmHg 82%
    02:00 +2°C° 0 mm 2 mps 760 mmHg 79%
    03:00 +1°C° 0 mm 2 mps 760 mmHg 77%
    04:00 +1°C° 0 mm 3 mps 760 mmHg 74%
    05:00 +1°C° 0 mm 3 mps 760 mmHg 70%
    06:00 +2°C° 0 mm 2 mps 760 mmHg 67%
    07:00 +2°C° 0 mm 2 mps 760 mmHg 64%
    08:00 +3°C° 0 mm 2 mps 760 mmHg 60%
    09:00 +5°C° 0 mm 2 mps 760 mmHg 57%
    10:00 +7°C° 0 mm 3 mps 760 mmHg 53%
    11:00 +9°C° 0 mm 3 mps 760 mmHg 50%
    12:00 +10°C° 0 mm 3 mps 759 mmHg 48%
    13:00 +13°C° 0 mm 2 mps 759 mmHg 46%
    14:00 +12°C° 0 mm 2 mps 759 mmHg 52%
    15:00 +10°C° 0 mm 2 mps 759 mmHg 57%
    16:00 +11°C° 0 mm 1 mps 759 mmHg 63%
    17:00 +9°C° 0 mm 2 mps 760 mmHg 66%
    18:00 +8°C° 0 mm 2 mps 760 mmHg 69%
    19:00 +8°C° 0 mm 2 mps 760 mmHg 71%
    20:00 +7°C° 0 mm 2 mps 760 mmHg 74%
    21:00 +7°C° 0 mm 2 mps 760 mmHg 77%
    22:00 +6°C° 0 mm 2 mps 761 mmHg 81%
    23:00 +6°C° 0 mm 2 mps 760 mmHg 83%

    Tomorrow, 26 June, Wednesday

    Time Temperature Precipitation Wind Pressure Humidity
    00:00 +5°C° 0 mm 2 mps 760 mmHg 85%
    01:00 +5°C° 0 mm 2 mps 760 mmHg 87%
    02:00 +4°C° 0 mm 2 mps 760 mmHg 88%
    03:00 +4°C° 0 mm 2 mps 760 mmHg 89%
    04:00 +4°C° 0 mm 2 mps 760 mmHg 90%
    05:00 +4°C° 0 mm 2 mps 760 mmHg 90%
    06:00 +4°C° 0 mm 2 mps 761 mmHg 89%
    07:00 +4°C° 0 mm 2 mps 761 mmHg 88%
    08:00 +5°C° 0 mm 2 mps 761 mmHg 81%
    09:00 +6°C° 0 mm 2 mps 761 mmHg 74%
    10:00 +8°C° 0 mm 2 mps 761 mmHg 68%
    11:00 +9°C° 0 mm 2 mps 761 mmHg 61%
    12:00 +12°C° 0 mm 2 mps 760 mmHg 55%
    13:00 +13°C° 0 mm 2 mps 760 mmHg 48%
    14:00 +12°C° 0 mm 2 mps 760 mmHg 53%
    15:00 +12°C° 0 mm 1 mps 760 mmHg 58%
    16:00 +11°C° 0 mm 1 mps 760 mmHg 63%
    17:00 +10°C° 0 mm 1 mps 760 mmHg 69%
    18:00 +8°C° 0 mm 2 mps 760 mmHg 75%
    19:00 +7°C° 0 mm 2 mps 760 mmHg 81%
    20:00 +7°C° 0 mm 2 mps 760 mmHg 83%
    21:00 +7°C° 0 mm 2 mps 760 mmHg 86%
    22:00 +6°C° 0 mm 2 mps 760 mmHg 88%
    23:00 +6°C° 0 mm 2 mps 760 mmHg 89%

    Day after tomorrow, 27 June, Thursday

    Time Temperature Precipitation Wind Pressure Humidity
    00:00 +6°C° 0 mm 2 mps 759 mmHg 89%
    01:00 +5°C° 0 mm 3 mps 759 mmHg 90%
    02:00 +5°C° 0 mm 3 mps 759 mmHg 90%
    03:00 +5°C° 0 mm 3 mps 759 mmHg 90%
    04:00 +5°C° 0 mm 3 mps 759 mmHg 90%
    05:00 +5°C° 0 mm 3 mps 759 mmHg 90%
    06:00 +4°C° 0 mm 3 mps 759 mmHg 90%
    07:00 +4°C° 0 mm 3 mps 759 mmHg 90%
    08:00 +7°C° 0 mm 3 mps 759 mmHg 83%
    09:00 +8°C° 0 mm 3 mps 759 mmHg 76%
    10:00 +9°C° 0 mm 3 mps 759 mmHg 70%
    11:00 +11°C° 0 mm 3 mps 758 mmHg 64%
    12:00 +12°C° 0 mm 3 mps 757 mmHg 59%
    13:00 +14°C° 0 mm 3 mps 757 mmHg 54%
    14:00 +13°C° 0 mm 3 mps 756 mmHg 57%
    15:00 +12°C° 0 mm 3 mps 756 mmHg 61%
    16:00 +12°C° 0 mm 3 mps 756 mmHg 65%
    17:00 +11°C° 0 mm 3 mps 756 mmHg 69%
    18:00 +10°C° 0 mm 3 mps 756 mmHg 74%
    19:00 +9°C° 0 mm 3 mps 756 mmHg 79%
    20:00 +9°C° 0 mm 3 mps 756 mmHg 78%
    21:00 +9°C° 0 mm 3 mps 756 mmHg 77%
    22:00 +9°C° 0 mm 3 mps 756 mmHg 76%
    23:00 +9°C° 0 mm 3 mps 755 mmHg 76%

    28 June, Friday

    Time Temperature Precipitation Wind Pressure Humidity
    00:00 +9°C° 0 mm 3 mps 755 mmHg 76%
    01:00 +9°C° 0 mm 3 mps 755 mmHg 76%
    02:00 +9°C° 0 mm 3 mps 755 mmHg 76%
    03:00 +9°C° 0 mm 3 mps 754 mmHg 76%
    04:00 +9°C° 0 mm 3 mps 754 mmHg 77%
    05:00 +9°C° 0 mm 3 mps 754 mmHg 76%
    06:00 +9°C° 0 mm 3 mps 754 mmHg 75%
    07:00 +9°C° 0 mm 3 mps 754 mmHg 75%
    08:00 +10°C° 0 mm 3 mps 754 mmHg 72%
    09:00 +11°C° 0 mm 3 mps 754 mmHg 69%
    10:00 +12°C° 0 mm 3 mps 754 mmHg 66%
    11:00 +13°C° 0 mm 4 mps 753 mmHg 63%
    12:00 +14°C° 0 mm 4 mps 753 mmHg 59%
    13:00 +17°C° 0 mm 4 mps 753 mmHg 56%
    14:00 +15°C° 0 mm 4 mps 752 mmHg 59%
    15:00 +14°C° 0 mm 3 mps 752 mmHg 62%
    16:00 +14°C° 0 mm 3 mps 752 mmHg 65%
    17:00 +13°C° 0 mm 3 mps 752 mmHg 69%
    18:00 +12°C° 0 mm 3 mps 752 mmHg 73%
    19:00 +11°C° 0 mm 3 mps 752 mmHg 77%
    20:00 +11°C° 0 mm 3 mps 752 mmHg 79%
    21:00 +11°C° 0 mm 3 mps 752 mmHg 82%
    22:00 +10°C° 0 mm 3 mps 752 mmHg 84%
    23:00 +10°C° 0 mm 3 mps 751 mmHg 84%

    29 June, Saturday

    Time Temperature Precipitation Wind Pressure Humidity
    00:00 +10°C° 0 mm 3 mps 751 mmHg 85%
    01:00 +10°C° 0 mm 3 mps 751 mmHg 85%
    02:00 +10°C° 0 mm 3 mps 750 mmHg 83%
    03:00 +11°C° 0 mm 4 mps 750 mmHg 81%
    04:00 +11°C° 0 mm 4 mps 749 mmHg 79%
    05:00 +11°C° 0 mm 4 mps 749 mmHg 77%
    06:00 +11°C° 0 mm 4 mps 748 mmHg 76%
    07:00 +11°C° 0 mm 4 mps 748 mmHg 75%
    08:00 +11°C° 0 mm 4 mps 748 mmHg 74%
    09:00 +12°C° 0 mm 4 mps 747 mmHg 73%
    10:00 +12°C° 0 mm 4 mps 747 mmHg 72%
    11:00 +13°C° 0 mm 4 mps 746 mmHg 71%
    12:00 +13°C° 0 mm 4 mps 745 mmHg 71%
    13:00 +14°C° 0 mm 4 mps 744 mmHg 71%
    14:00 +14°C° 0 mm 4 mps 743 mmHg 73%
    15:00 +13°C° 0 mm 5 mps 742 mmHg 75%
    16:00 +13°C° 0 mm 5 mps 741 mmHg 77%
    17:00 +12°C° 0 mm 5 mps 740 mmHg 79%
    18:00 +12°C° 0 mm 4 mps 740 mmHg 82%
    19:00 +11°C° 0 mm 4 mps 739 mmHg 84%
    20:00 +11°C° 0 mm 4 mps 738 mmHg 85%
    21:00 +11°C° 0 mm 4 mps 738 mmHg 86%
    22:00 +10°C° 0 mm 4 mps 737 mmHg 87%
    23:00 +10°C° 0.1 mm 3 mps 737 mmHg 86%

    30 June, Sunday

    Time Temperature Precipitation Wind Pressure Humidity
    00:00 +11°C° 0.1 mm 3 mps 737 mmHg 86%
    01:00 +11°C° 0.1 mm 3 mps 737 mmHg 85%
    02:00 +10°C° 0.2 mm 3 mps 737 mmHg 83%
    03:00 +9°C° 0.2 mm 3 mps 737 mmHg 81%
    04:00 +8°C° 0.2 mm 3 mps 737 mmHg 80%
    05:00 +7°C° 0 mm 3 mps 736 mmHg 80%
    06:00 +5°C° 0 mm 3 mps 736 mmHg 81%
    07:00 +4°C° 0 mm 3 mps 735 mmHg 82%
    08:00 +5°C° 0.3 mm 4 mps 734 mmHg 82%
    09:00 +6°C° 0.3 mm 5 mps 734 mmHg 82%
    10:00 +6°C° 0.3 mm 5 mps 733 mmHg 81%
    11:00 +6°C° 0.4 mm 7 mps 733 mmHg 78%
    12:00 +7°C° 0.4 mm 8 mps 734 mmHg 75%
    13:00 +8°C° 0.4 mm 9 mps 734 mmHg 71%
    14:00 +7°C° 0.7 mm 8 mps 736 mmHg 75%
    15:00 +6°C° 0.7 mm 8 mps 737 mmHg 79%
    16:00 +5°C° 0.7 mm 7 mps 739 mmHg 83%
    17:00 +5°C° 0 mm 6 mps 739 mmHg 83%
    18:00 +6°C° 0 mm 5 mps 740 mmHg 82%
    19:00 +6°C° 0 mm 4 mps 741 mmHg 82%
    20:00 +6°C° 0 mm 4 mps 741 mmHg 82%
    21:00 +6°C° 0 mm 4 mps 741 mmHg 82%
    22:00 +7°C° 0 mm 4 mps 741 mmHg 81%
    23:00 +7°C° 0 mm 4 mps 741 mmHg 80%
    Show more